PAL1806 RPLL-RPVM

Flight info

Callsign PAL1806
Flight time N/A
Altitude 39000
Route IPATA2R IPATA W25 BATAY BATAY3P
Aircraft A359/H-SDE2E3GHIJ3J4J5LM1ORWXY/LB1D1

Departure

Time N/A
Airport Ninoy Aquino International Airport (RPLL)

Arrival

Time 2026-05-05 07:39
Airport Mactan Cebu International Airport (RPVM)
Time Latitude Longitude Altitude Speed Heading
2026-05-05 07:19 11.29153 123.73132 25163 ft 431 kts 144°
2026-05-05 07:20 11.22454 123.78067 23668 ft 423 kts 144°
2026-05-05 07:20 11.19345 123.80357 22891 ft 418 kts 144°
2026-05-05 07:20 11.16969 123.82040 22336 ft 414 kts 148°
2026-05-05 07:21 11.14347 123.83238 21720 ft 414 kts 165°
2026-05-05 07:21 11.11499 123.83552 21136 ft 414 kts 183°
2026-05-05 07:21 11.08672 123.83041 20582 ft 412 kts 194°
2026-05-05 07:21 11.05917 123.82270 20015 ft 409 kts 195°
2026-05-05 07:22 11.03190 123.81479 19462 ft 406 kts 195°
2026-05-05 07:22 11.00480 123.80703 18904 ft 403 kts 195°
2026-05-05 07:22 10.97786 123.79939 18347 ft 401 kts 195°
2026-05-05 07:22 10.95106 123.79184 17740 ft 399 kts 195°
2026-05-05 07:23 10.92444 123.78439 17161 ft 395 kts 195°
2026-05-05 07:23 10.89810 123.77702 16609 ft 390 kts 195°
2026-05-05 07:23 10.87204 123.76973 16062 ft 386 kts 195°
2026-05-05 07:23 10.84627 123.76254 15503 ft 382 kts 195°
2026-05-05 07:24 10.82072 123.75541 14968 ft 379 kts 195°
2026-05-05 07:24 10.79540 123.74836 14433 ft 376 kts 195°
2026-05-05 07:24 10.77026 123.74141 13862 ft 373 kts 195°
2026-05-05 07:24 10.74534 123.73445 13278 ft 370 kts 196°
2026-05-05 07:25 10.72071 123.72757 12727 ft 365 kts 195°
2026-05-05 07:25 10.69647 123.72080 12297 ft 357 kts 195°
2026-05-05 07:25 10.67274 123.71418 11836 ft 351 kts 196°
2026-05-05 07:25 10.64939 123.70766 11416 ft 344 kts 195°
2026-05-05 07:26 10.62688 123.70139 11291 ft 327 kts 195°
2026-05-05 07:26 10.61257 123.69739 11207 ft 317 kts 195°
2026-05-05 07:26 10.59190 123.69171 11108 ft 297 kts 196°
2026-05-05 07:26 10.57239 123.68630 11005 ft 284 kts 195°
2026-05-05 07:27 10.55358 123.68107 10861 ft 278 kts 195°
2026-05-05 07:27 10.53495 123.67590 10525 ft 277 kts 196°
2026-05-05 07:27 10.51643 123.67076 10194 ft 275 kts 196°
2026-05-05 07:27 10.49192 123.66393 9781 ft 282 kts 196°
2026-05-05 07:28 10.47892 123.66030 9642 ft 290 kts 195°
2026-05-05 07:28 10.45939 123.65485 9434 ft 290 kts 196°
2026-05-05 07:28 10.43988 123.64939 8912 ft 291 kts 195°
2026-05-05 07:28 10.42044 123.64396 8501 ft 288 kts 195°
2026-05-05 07:29 10.40115 123.63860 8157 ft 287 kts 195°
2026-05-05 07:29 10.38188 123.63324 7818 ft 287 kts 195°
2026-05-05 07:29 10.36240 123.62898 7476 ft 287 kts 185°
2026-05-05 07:29 10.34280 123.63134 7140 ft 284 kts 159°
2026-05-05 07:30 10.32629 123.64179 6830 ft 279 kts 138°
2026-05-05 07:30 10.29906 123.66925 6172 ft 272 kts 134°
2026-05-05 07:30 10.28580 123.68292 5843 ft 272 kts 135°
2026-05-05 07:31 10.27250 123.69657 5508 ft 272 kts 135°
2026-05-05 07:31 10.25918 123.71018 5184 ft 271 kts 135°
2026-05-05 07:31 10.24591 123.72375 4884 ft 271 kts 134°
2026-05-05 07:31 10.23264 123.73727 4552 ft 270 kts 135°
2026-05-05 07:32 10.21939 123.75071 4221 ft 269 kts 134°
2026-05-05 07:32 10.20620 123.76411 3890 ft 268 kts 135°
2026-05-05 07:32 10.19332 123.77721 3739 ft 255 kts 135°
2026-05-05 07:32 10.18116 123.78959 3649 ft 240 kts 134°
2026-05-05 07:33 10.16981 123.80141 3522 ft 227 kts 130°
2026-05-05 07:33 10.16229 123.81471 3416 ft 210 kts 105°
2026-05-05 07:33 10.16210 123.82885 3328 ft 196 kts 76°
2026-05-05 07:33 10.16839 123.84081 3261 ft 191 kts 52°
2026-05-05 07:34 10.17722 123.85021 3206 ft 177 kts 47°
2026-05-05 07:34 10.18576 123.85852 3118 ft 163 kts 46°
2026-05-05 07:34 10.19358 123.86610 3017 ft 151 kts 46°
2026-05-05 07:34 10.20085 123.87321 2812 ft 141 kts 47°
2026-05-05 07:35 10.20818 123.87982 2523 ft 141 kts 40°
2026-05-05 07:35 10.21548 123.88647 2276 ft 141 kts 50°
2026-05-05 07:35 10.22220 123.89341 2070 ft 135 kts 46°
2026-05-05 07:35 10.22886 123.90008 1902 ft 134 kts 49°
2026-05-05 07:36 10.23552 123.90674 1739 ft 136 kts 48°
2026-05-05 07:36 10.24218 123.91341 1537 ft 134 kts 49°
2026-05-05 07:36 10.24874 123.92003 1376 ft 132 kts 50°
2026-05-05 07:36 10.25531 123.92668 1207 ft 134 kts 48°
2026-05-05 07:37 10.26191 123.93332 1027 ft 133 kts 49°
2026-05-05 07:37 10.26850 123.93998 827 ft 133 kts 48°
2026-05-05 07:37 10.27495 123.94651 659 ft 130 kts 46°
2026-05-05 07:37 10.28136 123.95298 475 ft 130 kts 47°
2026-05-05 07:38 10.28759 123.95954 307 ft 128 kts 45°
2026-05-05 07:38 10.29406 123.96594 170 ft 133 kts 47°
2026-05-05 07:38 10.30056 123.97248 54 ft 129 kts 46°
2026-05-05 07:38 10.30667 123.97855 43 ft 115 kts 42°
2026-05-05 07:39 10.31077 123.98255 43 ft 42 kts 33°
2026-05-05 07:39 10.31243 123.98337 45 ft 18 kts 20°
2026-05-05 07:39 10.31331 123.98354 43 ft 8 kts 357°